SCP
0 0 0 0 0 0 0 0 0 0 0 0 0 0 0 0 0 0 0 -0 0 0 0 -0 0 0 0 0 0 -0 -0 0 0 0 0 0 0 0 0 0 0 0 0 0 0 0 0 0 0 0 0 0 0 0
0 0 0 0 0 0 0 0 0 0 0 0 0 0 0 0 0 0 0 0 0 0 0 -0 -0 -0 -0 0 0 -0 -0 -0 0 0 0 0 0 0 0 0 0 0 0 0 0 0 0 0 0 0 0 0 0 0
0 0 0 0 0 0 0 0 0 0 0 0 0 0 0 0 0 0 -0 -0 0 0 -0 0 0 0 -0 -0 -0 -0 -0 0 0 0 0 0 0 0 0 0 0 0 0 0 0 0 0 0 0 0 0 0 0 0
0 0 0 0 0 0 0 0 0 0 0 0 0 0 0 -0 -0 0 -0 0 -0 -0 -0 -0 0 0 0 0 -0 -0 -0 0 0 0 0 0 0 0 0 0 0 0 0 0 0 0 0 0 0 0 0 0 0 0
0 0 0 0 0 0 0 0 0 0 0 0 0 0 0 -0 -0 0 -0 -0 -0 -0 0 -0 -0 0 0 0 0 0 -0 0 0 0 0 0 0 0 0 0 0 0 0 0 0 0 0 0 0 0 0 0 0 0
0 0 0 0 0 0 0 0 0 0 0 0 0 0 -0 -0 0 -0 -0 -0 -0 -0 -0 -0 -0 0 -0 0 0 0 0 0 0 0 0 0 0 0 0 0 0 0 0 0 0 0 0 0 0 0 0 0 0 0
0 0 0 0 0 0 0 0 0 0 0 0 0 -0 -0 -0 0 0 -0 0 0 0 0 0 -0 0 0 0 0 0 0 0 0 0 0 0 0 0 0 0 0 0 0 0 0 0 0 0 0 0 0 0 0 0
0 0 0 0 0 0 0 0 0 0 0 0 -0 -0 -0 -0 -0 -0 0 -0 -0 -0 -0 0 0 0 0 0 0 0 0 0 0 0 0 0 0 0 0 0 0 0 0 0 0 0 0 0 0 0 0 0 0 0
0 0 0 0 0 0 0 0 0 0 0 -0 -0 -0 -0 0 0 -0 0 0 -0 -0 -0 -0 0 0 0 0 0 0 0 0 0 0 0 0 0 0 0 0 0 0 0 0 0 0 0 0 0 0 0 0 0 0
0 0 0 0 0 0 0 0 0 0 -0 -0 0 -0 -0 -0 -0 -0 0 0 -0 -0 -0 0 -0 0 0 0 0 0 0 0 0 -0 0 0 0 0 0 -0 0 0 0 0 0 0 0 0 0 0 0 0 0 0
0 0 0 0 0 0 -0 0 -0 -0 0 -0 -0 -0 -0 -0 0 0 0 0 -0 -0 -0 0 0 0 0 0 0 0 0 0 0 0 0 0 0 0 0 0 0 0 0 0 0 0 0 0 0 0 0 0 0 0
0 0 0 -0 -0 -0 -0 0 -0 0 0 -0 -0 -0 -0 0 0 0 0 0 -0 0 0 0 -0 -0 0 0 0 0 0 0 0 0 0 0 0 0 0 0 0 0 -0 0 0 0 0 0 0 0 -0 0 0 -0
0 0 0 -0 -0 -0 -0 -0 -0 -0 -0 -0 0 -0 0 -0 0 0 0 0 0 -0 -0 -0 -0 0 0 0 0 0 0 0 0 0 0 0 0 0 0 0 0 0 0 0 0 0 0 0 0 -0 -0 -0 -0 -0
0 0 -0 -0 0 -0 -0 -0 -0 -0 0 0 -0 -0 -0 0 0 -0 -0 0 -0 -0 -0 0 0 0 0 0 0 0 0 0 0 0 0 0 -0 0 0 0 -0 0 0 0 0 0 0 0 -0 -0 -0 0 -0 -0
0 0 -0 -0 0 -0 -0 -0 -0 -0 0 0 0 0 0 -0 -0 -0 -0 0 0 0 -0 0 0 0 0 0 0 0 0 0 0 0 0 0 0 0 0 0 0 0 0 0 0 0 0 0 0 0 -0 -0 -0 0
0 -0 0 0 0 -0 -0 -0 0 0 -0 -0 0 -0 -0 0 0 0 0 0 0 0 0 0 0 0 0 0 0 0 0 0 -0 0 -0 -0 0 0 0 0 0 0 0 0 0 0 0 0 0 0 -0 -0 -0 0
-0 0 0 -0 -0 -0 -0 -0 0 -0 -0 -0 -0 0 0 0 -0 0 0 0 0 0 0 0 0 0 0 0 0 0 0 0 0 0 0 0 0 0 0 0 0 0 0 0 0 0 0 0 0 0 0 0 0 0
0 0 -0 -0 -0 -0 0 0 0 0 0 0 0 0 0 0 0 0 0 0 0 0 0 0 0 0 0 0 -0 0 -0 -0 -0 -0 0 0 0 0 0 0 0 -0 0 0 0 0 0 -0 0 -0 -0 0 0 0
0 0 -0 -0 0 0 0 0 0 0 0 0 0 0 0 0 0 0 0 0 0 0 0 0 0 0 0 -0 0 -0 0 -0 0 -0 -0 0 -0 -0 -0 -0 -0 -0 -0 -0 -0 0 0 -0 0 -0 -0 -0 0 0
-0 -0 -0 0 0 0 0 0 0 0 0 0 0 0 0 0 0 0 0 0 0 0 0 -0 0 -0 -0 0 0 -0 -0 -0 -0 -0 -0 0 -0 0 0 -0 -0 -0 -0 -0 -0 -0 -0 -0 -0 -0 -0 -0 -0 -0
0 0 0 0 0 0 0 0 0 0 0 0 0 0 0 0 0 0 0 0 0 0 0 -0 0 -0 -0 -0 -0 0 -0 0 0 0 0 0 0 0 0 0 -0 -0 -0 -0 -0 -0 0 0 0 -0 -0 -0 -0 -0
0 0 0 0 0 0 0 0 0 0 0 0 0 0 0 0 0 0 -0 0 0 0 0 0 -0 -0 -0 -0 -0 0 -0 -0 0 0 -0 -0 -0 0 0 0 0 -0 0 -0 -0 -0 0 0 0 0 -0 -0 -0 -0
0 0 0 0 0 0 0 0 0 0 0 0 0 0 0 0 0 0 0 0 0 0 0 0 -0 -0 -0 -0 -0 0 0 0 0 -0 -0 -0 -0 -0 -0 -0 0 -0 -0 -0 0 -0 -0 -0 0 0 0 -0 -0 -0
0 0 0 0 0 0 0 0 0 0 0 0 0 0 0 0 0 0 0 0 0 0 0 0 0 0 0 0 -0 -0 0 0 0 0 -0 -0 -0 -0 -0 -0 -0 0 -0 -0 -0 -0 -0 -0 -0 0 0 -0 -0 -0
0 0 0 0 0 0 0 0 0 0 0 0 0 0 0 0 0 0 0 0 0 0 0 0 0 0 -0 0 0 0 0 0 0 0 0 0 0 0 0 0 -0 -0 -0 -0 -0 -0 -0 -0 -0 0 -0 -0 -0 -0
0 0 0 0 0 0 0 0 0 0 0 0 0 0 0 0 0 0 0 0 0 0 0 0 0 0 0 0 0 0 0 0 0 0 0 0 0 0 0 0 0 0 -0 -0 -0 -0 -0 -0 0 -0 -0 -0 -0 -0
0 0 0 0 0 0 0 0 0 0 0 0 0 0 0 0 0 0 -0 0 0 0 0 0 0 0 0 0 0 0 0 0 0 0 0 0 0 -0 0 0 -0 -0 -0 -0 -0 -0 -0 -0 -0 -0 -0 0 0 0
0 0 0 0 0 0 0 0 0 0 0 0 0 0 0 0 0 0 0 0 0 0 0 0 0 0 0 0 0 0 0 0 0 0 0 0 0 0 0 0 0 -0 -0 -0 -0 -0 -0 -0 -0 -0 -0 0 0 0
0 0 0 0 0 0 0 0 0 0 0 0 0 0 0 0 0 0 0 0 0 0 0 0 0 0 0 0 0 0 0 0 0 0 0 0 0 0 0 0 0 0 0 0 0 -0 -0 -0 -0 -0 -0 0 0 0
-0 0 0 0 0 0 0 0 0 0 -0 0 0 0 0 0 0 -0 0 0 0 0 0 0 0 0 0 0 0 0 0 0 0 0 0 0 0 0 0 0 0 0 0 0 0 0 -0 -0 -0 -0 -0 0 0 0
0 0 0 0 0 0 0 0 -0 -0 -0 0 0 0 0 0 0 0 0 0 0 0 0 0 0 0 0 0 0 0 0 0 0 0 0 0 0 0 0 0 0 0 0 0 0 0 0 0 0 0 0 0 0 0
-0 -0 0 0 0 0 0 0 0 0 0 0 0 0 0 0 0 0 0 0 0 0 0 0 0 0 0 0 0 0 0 0 0 0 0 0 0 0 0 0 0 0 0 0 0 0 0 0 0 0 0 0 0 0
0 -0 -0 0 0 0 0 -0 0 0 0 0 0 0 0 0 0 0 0 0 0 0 0 0 0 0 0 0 0 0 0 0 0 0 0 0 0 0 0 0 0 0 0 0 0 0 0 0 0 0 0 0 0 0
Wind_Speed_500mb
37 38 41 44 46 47 47 48 47 49 51 51 49 43 40 38 38 40 49 39 34 27 53 64 46 36 41 36 10 22 19 6 7 6 7 7 6 4 8 11 13 7 7 2 4 6 6 15 18 9 14 33 37 35
37 39 42 44 46 47 48 48 47 49 50 51 52 49 44 38 38 42 48 42 41 42 50 71 72 48 41 44 52 9 5 25 7 6 4 6 7 2 6 3 9 5 5 9 8 5 14 41 43 44 43 41 33 28
39 41 42 44 46 47 47 48 48 47 48 50 50 50 45 43 40 44 51 49 44 33 42 29 34 24 26 37 27 4 2 12 12 11 5 3 3 7 6 3 7 10 7 6 9 13 19 40 39 38 32 32 28 22
40 41 43 44 45 46 48 49 50 47 47 50 51 50 46 45 44 45 52 50 40 15 10 19 24 52 32 24 22 22 24 32 32 35 15 7 2 16 6 7 9 5 3 6 12 22 33 28 31 32 32 23 26 24
40 42 43 44 45 46 49 49 50 47 46 50 49 50 48 42 36 48 47 45 26 27 9 25 61 13 13 18 21 7 12 19 22 8 5 7 8 12 8 6 12 14 9 5 6 21 29 14 19 26 34 32 29 26
40 43 43 43 44 47 48 48 48 46 44 48 50 48 45 39 36 42 11 15 6 30 8 6 18 15 13 1 13 22 15 6 8 7 3 10 7 9 6 6 4 32 39 36 21 34 39 38 26 30 34 29 25 22
41 42 43 44 46 45 45 44 46 43 43 50 51 49 44 35 28 23 17 25 15 21 6 7 10 10 8 4 4 5 14 3 2 2 6 3 6 13 4 4 16 31 35 31 29 35 29 30 37 32 27 23 15 14
39 41 41 43 42 41 46 46 39 43 48 51 55 44 34 28 25 24 19 15 11 14 8 6 6 11 5 3 1 3 4 5 5 6 5 3 5 1 1 12 29 25 28 27 30 28 28 47 38 32 22 18 20 25
40 40 41 40 40 42 43 36 38 46 50 44 40 28 12 4 5 12 7 7 9 9 4 6 4 5 4 3 2 3 4 1 3 2 2 5 2 2 2 23 24 19 20 18 23 29 44 44 34 29 27 30 30 25
40 41 38 37 37 38 40 35 37 46 38 30 28 13 7 7 4 3 4 5 5 7 9 6 3 6 6 4 5 4 8 5 4 7 14 1 2 14 17 37 28 26 9 8 42 42 42 43 32 28 28 25 19 16
39 38 34 32 33 35 32 30 34 43 33 27 15 8 28 6 4 4 6 8 11 6 13 13 24 8 16 6 5 11 5 5 5 6 7 3 5 9 27 31 29 41 41 49 46 37 34 24 19 19 23 21 15 17
35 32 31 31 33 31 27 21 29 31 31 28 23 29 13 6 4 6 6 6 6 5 9 5 3 4 4 4 2 6 1 4 4 3 4 5 6 29 33 33 42 45 46 40 28 32 31 22 15 21 29 22 17 16
34 30 30 30 33 29 19 20 25 29 27 13 6 6 5 4 4 8 5 3 2 19 4 1 3 3 6 6 6 4 4 3 16 4 3 4 20 35 32 44 44 39 36 34 32 29 28 25 17 28 31 26 16 17
35 32 27 27 25 16 19 19 19 23 11 6 4 7 6 6 2 2 4 5 16 15 21 25 5 3 6 4 6 5 1 6 3 3 4 7 32 33 32 46 45 41 37 36 33 27 24 24 23 28 35 32 19 22
36 29 20 11 17 24 24 18 10 12 6 6 6 7 6 7 23 18 21 21 20 20 16 10 3 5 5 5 2 5 3 3 6 4 5 29 42 32 37 48 42 35 31 31 27 23 23 23 25 25 30 33 24 22
31 19 3 17 29 29 23 14 7 7 6 7 10 9 12 15 13 17 16 20 14 10 11 8 6 5 7 4 7 4 3 3 4 6 31 40 35 27 48 42 40 35 28 29 26 19 19 24 30 25 25 28 32 28
23 9 19 38 38 25 16 7 3 7 7 7 11 20 19 21 21 22 12 11 11 9 2 5 3 7 3 3 3 3 4 6 22 36 41 39 33 52 45 44 39 35 29 26 24 17 16 18 26 21 23 29 30 31
23 22 31 36 37 15 2 5 6 7 11 17 12 18 20 22 21 25 14 7 4 6 8 3 8 5 7 3 5 4 13 26 37 41 42 38 45 43 41 39 34 27 28 22 20 18 17 16 18 18 19 18 20 27
26 24 20 15 11 9 3 4 7 7 12 19 22 26 21 23 14 19 13 5 8 13 12 10 4 4 4 8 7 16 22 33 36 42 42 38 41 42 38 36 31 29 27 22 26 21 18 14 14 12 17 19 19 16
21 18 9 6 5 3 6 7 7 8 10 13 26 26 22 18 15 10 10 8 10 6 5 4 6 5 13 15 14 23 27 35 43 42 37 36 44 42 41 37 32 25 29 28 21 23 25 23 21 15 11 13 10 22
6 5 8 11 7 8 7 8 7 8 12 13 26 26 22 19 10 9 9 10 5 5 4 9 22 25 21 22 21 33 31 35 34 38 40 48 43 40 37 37 32 32 23 23 29 26 19 12 16 16 15 19 22 22
5 10 3 7 7 8 11 11 10 14 10 19 30 26 16 14 6 9 8 11 5 6 3 15 9 7 21 21 21 22 21 26 22 25 31 43 45 40 38 38 32 37 28 26 30 30 21 23 20 19 14 20 24 21
8 5 5 6 6 5 12 11 7 7 6 6 9 7 8 9 9 17 5 9 7 5 6 10 11 13 18 16 20 23 22 23 21 22 39 33 38 32 40 30 29 35 35 38 31 27 21 22 18 22 21 22 23 24
5 4 5 7 14 8 7 8 11 8 8 6 6 8 4 3 7 8 3 6 10 7 4 5 3 15 12 12 21 22 20 17 19 22 23 28 38 31 34 35 30 24 31 35 35 27 30 26 23 19 20 21 23 22
5 8 8 10 9 6 8 8 10 8 8 12 15 9 3 5 4 5 4 7 17 17 14 15 25 15 18 11 17 21 20 17 19 19 16 17 27 30 31 34 29 29 31 30 34 27 27 19 25 25 23 26 27 21
6 9 10 10 12 11 8 5 11 16 13 8 10 12 5 6 1 7 5 5 5 11 26 29 25 19 23 14 13 20 15 17 16 18 17 15 26 28 31 39 41 36 27 26 28 24 27 22 22 26 27 29 22 20
7 10 17 19 15 16 10 13 20 8 7 6 2 2 2 2 7 4 4 10 14 16 10 12 16 20 13 11 12 9 13 14 13 19 22 22 23 20 27 34 43 36 30 30 32 29 32 26 32 22 20 18 25 20
13 11 8 12 18 19 16 12 7 5 1 4 8 8 5 5 4 4 2 7 5 8 6 5 5 9 12 8 7 2 16 21 19 17 21 32 27 11 16 14 37 31 31 30 29 37 33 35 31 26 19 25 22 19
12 16 14 20 20 10 11 13 8 4 10 7 4 5 5 6 6 3 3 1 2 4 5 7 6 5 3 4 4 6 8 18 10 10 16 20 19 15 9 12 28 29 36 35 42 37 31 29 27 30 30 31 27 23
23 26 15 13 18 9 4 9 7 6 7 7 9 13 15 13 10 6 6 7 6 5 4 8 10 10 12 12 6 4 6 9 15 11 16 24 19 21 24 27 29 32 31 44 42 38 36 37 37 34 31 26 22 25
10 10 19 22 17 10 8 14 11 17 14 9 12 17 13 13 14 9 7 3 6 2 4 5 8 2 11 17 12 9 6 5 10 14 18 19 16 22 20 32 23 31 34 35 41 41 40 38 36 35 28 25 21 23
14 13 7 8 13 6 13 14 9 4 4 11 11 19 15 11 7 4 2 3 4 3 4 5 4 10 11 7 5 2 5 4 8 16 9 18 20 18 24 26 34 42 38 32 40 37 35 33 28 31 29 29 26 25
21 20 14 12 9 10 12 12 6 4 4 10 10 13 8 7 7 9 7 5 3 7 8 13 12 15 14 16 19 22 19 15 17 20 19 19 24 31 31 24 33 39 39 30 38 33 31 31 31 33 35 31 30 27
Wind_Direction_500mb
304 310 313 316 317 318 321 319 319 321 326 328 327 323 319 315 314 319 301 302 303 280 284 281 284 301 302 305 303 316 332 1 300 320 26 307 84 137 280 116 129 128 116 195 18 85 122 338 30 65 129 94 85 68
301 308 312 314 316 318 318 318 317 318 321 326 326 324 316 314 311 318 312 300 307 290 275 290 290 289 279 275 273 246 256 304 322 306 35 340 341 65 341 98 128 111 153 161 138 165 98 88 107 124 112 111 102 90
303 307 311 314 315 315 317 319 318 316 318 320 324 327 320 313 309 313 307 305 309 286 301 279 293 288 282 257 255 182 270 287 344 326 299 249 117 269 125 47 66 70 63 108 83 39 93 109 113 112 115 105 102 97
301 306 310 312 314 314 317 319 319 318 318 322 326 324 319 311 308 308 303 298 297 274 271 281 256 300 280 277 254 252 270 261 277 269 232 225 113 356 58 167 116 182 95 151 91 119 82 92 115 114 104 89 83 74
301 305 309 312 313 314 317 318 318 317 319 325 326 320 314 308 314 309 305 290 272 241 286 296 312 337 339 275 272 258 240 265 298 322 351 15 31 6 344 74 47 34 26 38 102 120 112 82 72 97 91 80 67 54
302 306 310 311 312 315 316 320 321 319 323 327 324 322 319 312 313 326 322 65 112 232 272 293 289 315 315 101 221 207 220 242 313 334 334 71 16 26 27 56 57 89 77 99 114 114 121 120 98 95 83 78 73 59
304 307 310 313 316 319 321 326 323 321 327 325 319 317 312 306 287 271 269 304 12 343 276 284 291 319 287 188 231 272 286 228 180 40 40 1 70 5 34 45 68 95 102 102 117 122 91 116 93 96 96 84 84 42
303 305 310 313 317 317 322 324 322 326 325 321 319 317 309 298 288 291 310 283 237 271 270 279 269 306 289 340 10 232 320 3 29 5 81 74 97 286 337 124 98 105 110 107 102 107 112 104 93 78 64 34 4 342
303 306 311 312 313 316 321 322 324 328 328 327 332 334 335 2 352 344 315 278 231 240 260 279 294 305 320 328 68 166 185 277 238 210 235 135 186 230 337 129 131 116 111 118 115 115 99 83 73 55 28 5 352 341
306 309 309 312 314 320 324 321 327 333 342 345 342 355 338 314 292 295 267 238 230 220 231 249 140 266 305 274 166 222 214 224 187 210 152 188 114 75 122 129 117 83 63 122 87 73 81 74 69 42 26 5 355 343
306 305 308 309 312 320 322 324 334 332 354 355 338 320 317 299 328 254 261 218 179 228 215 231 172 231 214 239 210 208 208 208 172 210 131 227 89 110 115 118 115 106 98 92 94 92 86 83 65 50 24 13 13 346
309 312 313 308 313 319 322 331 334 339 332 311 302 304 304 309 284 275 232 215 223 255 204 213 225 195 237 210 248 272 193 269 112 114 134 121 142 125 119 112 109 106 106 102 97 93 84 77 49 43 30 28 16 9
312 315 311 306 313 316 320 330 329 335 330 319 293 280 286 252 270 242 266 213 270 334 262 213 167 165 228 260 260 267 287 74 135 153 99 100 135 131 132 119 111 109 111 111 108 100 90 87 62 43 35 31 42 40
314 315 309 312 317 322 319 325 332 337 319 292 289 282 257 221 279 273 254 247 283 296 342 340 139 201 237 264 210 273 239 127 216 122 101 153 142 145 136 126 120 113 112 119 120 113 98 80 64 47 34 35 61 58
317 314 312 299 326 323 321 323 321 310 268 271 255 254 248 318 305 317 315 298 290 308 340 341 319 227 252 232 194 5 237 209 64 136 130 138 144 145 138 129 123 122 131 132 135 126 109 87 70 60 41 40 61 80
322 325 288 309 315 321 317 312 304 256 249 243 235 267 295 308 313 330 318 305 323 319 323 250 267 226 243 192 194 224 19 121 227 142 140 144 144 147 132 130 133 132 135 135 142 136 126 96 68 61 68 45 54 73
320 299 311 311 314 316 281 267 232 233 245 239 238 238 261 276 277 284 288 278 290 311 302 299 267 269 214 161 181 62 110 130 134 126 144 152 149 134 133 135 134 135 137 146 145 141 127 107 85 69 83 65 53 57
305 305 290 298 308 325 225 229 224 240 248 248 257 266 240 233 264 293 285 270 287 333 326 275 282 300 3 21 16 94 111 127 142 137 141 142 145 143 143 139 139 139 143 142 135 126 114 102 88 86 85 92 70 66
308 305 308 293 308 333 316 248 235 265 262 272 274 283 288 285 269 285 278 272 288 286 289 284 7 75 265 212 182 112 144 148 143 139 142 146 149 148 146 146 145 146 146 141 135 145 158 112 92 85 69 91 89 92
304 304 294 231 232 271 268 249 232 254 274 306 297 287 293 284 280 277 269 275 310 286 241 49 297 314 126 118 108 145 135 139 136 138 147 150 152 149 151 152 154 143 146 152 155 135 129 131 126 133 118 100 94 82
330 344 301 209 248 245 268 297 258 259 289 280 295 309 284 274 241 245 257 230 275 286 78 91 266 300 110 96 97 130 139 149 153 157 152 146 154 154 155 159 158 161 164 154 147 157 163 149 128 116 105 98 111 118
273 318 287 220 245 236 246 239 251 300 280 278 290 280 268 279 225 217 202 216 253 269 118 139 312 133 105 107 123 147 147 151 139 140 153 155 155 159 165 168 171 183 181 160 162 170 161 145 148 141 116 111 105 110
295 301 271 244 248 253 264 231 242 230 250 254 267 252 226 230 200 165 205 220 228 248 222 196 164 125 121 116 125 135 149 147 148 151 156 162 168 169 176 177 181 193 189 183 167 169 160 163 147 136 130 123 129 134
262 270 258 266 198 248 254 226 217 238 247 253 252 262 259 283 178 181 212 102 35 339 241 80 49 117 124 142 137 143 149 152 164 163 178 172 169 178 184 182 178 177 176 171 172 166 165 164 166 159 153 145 139 142
240 243 216 256 248 248 232 230 204 228 242 212 257 277 358 318 212 229 96 44 35 37 48 86 77 96 189 171 154 159 162 153 157 162 180 166 172 183 175 171 169 173 172 176 166 158 168 164 167 168 166 168 167 163
247 230 204 232 201 213 232 254 209 217 234 230 236 105 186 229 207 50 47 28 68 14 47 52 54 70 70 77 154 156 161 171 172 170 179 174 177 182 178 172 172 171 182 183 178 164 164 162 173 182 165 157 162 161
254 258 229 240 254 290 292 276 271 255 249 234 55 294 304 30 82 133 171 44 25 36 45 27 47 39 48 70 91 144 184 173 195 196 199 182 171 202 199 191 183 185 178 184 189 186 177 163 174 174 174 180 164 172
249 279 277 251 255 257 271 279 287 263 170 85 57 14 48 44 81 93 337 295 337 24 7 8 359 24 61 59 45 40 187 195 225 228 231 199 213 190 176 190 192 190 193 198 188 186 182 177 180 182 171 155 161 168
238 252 281 276 258 245 245 248 251 18 349 23 118 99 108 140 108 87 5 303 260 353 20 43 41 29 78 70 306 323 198 174 186 176 190 200 195 194 165 164 188 183 185 189 186 176 175 175 171 173 171 173 175 175
249 225 239 266 249 248 354 341 344 180 170 143 136 132 114 107 110 93 96 55 52 44 29 43 44 47 43 30 58 99 185 202 204 226 211 192 195 199 182 157 168 181 180 172 172 169 169 169 173 177 179 181 187 177
245 237 235 248 273 298 285 294 306 265 193 168 161 146 137 136 126 126 134 71 4 85 162 111 53 58 91 62 32 56 115 167 223 220 221 210 191 196 198 200 186 202 196 198 188 183 181 181 183 180 179 176 181 169
227 222 257 287 287 334 306 284 277 264 197 167 166 144 147 148 133 131 26 122 155 106 258 235 274 275 261 231 127 238 203 208 248 234 188 200 222 198 181 186 204 198 195 192 185 184 190 194 193 181 175 181 177 182
238 238 243 276 276 275 271 259 237 233 187 165 170 185 161 146 126 171 259 309 218 209 244 266 294 300 297 285 267 251 241 237 266 258 257 233 212 197 178 175 192 195 185 190 173 189 184 184 178 178 186 186 181 193
Wind_Speed_850mb
37 38 41 44 46 47 47 48 47 49 51 51 49 43 40 38 38 40 49 39 34 27 53 64 46 36 41 36 10 22 19 6 7 6 7 7 6 4 8 11 13 7 7 2 4 6 6 15 18 9 14 33 37 35
37 39 42 44 46 47 48 48 47 49 50 51 52 49 44 38 38 42 48 42 41 42 50 71 72 48 41 44 52 9 5 25 7 6 4 6 7 2 6 3 9 5 5 9 8 5 14 41 43 44 43 41 33 28
39 41 42 44 46 47 47 48 48 47 48 50 50 50 45 43 40 44 51 49 44 33 42 29 34 24 26 37 27 4 2 12 12 11 5 3 3 7 6 3 7 10 7 6 9 13 19 40 39 38 32 32 28 22
40 41 43 44 45 46 48 49 50 47 47 50 51 50 46 45 44 45 52 50 40 15 10 19 24 52 32 24 22 22 24 32 32 35 15 7 2 16 6 7 9 5 3 6 12 22 33 28 31 32 32 23 26 24
40 42 43 44 45 46 49 49 50 47 46 50 49 50 48 42 36 48 47 45 26 27 9 25 61 13 13 18 21 7 12 19 22 8 5 7 8 12 8 6 12 14 9 5 6 21 29 14 19 26 34 32 29 26
40 43 43 43 44 47 48 48 48 46 44 48 50 48 45 39 36 42 11 15 6 30 8 6 18 15 13 1 13 22 15 6 8 7 3 10 7 9 6 6 4 32 39 36 21 34 39 38 26 30 34 29 25 22
41 42 43 44 46 45 45 44 46 43 43 50 51 49 44 35 28 23 17 25 15 21 6 7 10 10 8 4 4 5 14 3 2 2 6 3 6 13 4 4 16 31 35 31 29 35 29 30 37 32 27 23 15 14
39 41 41 43 42 41 46 46 39 43 48 51 55 44 34 28 25 24 19 15 11 14 8 6 6 11 5 3 1 3 4 5 5 6 5 3 5 1 1 12 29 25 28 27 30 28 28 47 38 32 22 18 20 25
40 40 41 40 40 42 43 36 38 46 50 44 40 28 12 4 5 12 7 7 9 9 4 6 4 5 4 3 2 3 4 1 3 2 2 5 2 2 2 23 24 19 20 18 23 29 44 44 34 29 27 30 30 25
40 41 38 37 37 38 40 35 37 46 38 30 28 13 7 7 4 3 4 5 5 7 9 6 3 6 6 4 5 4 8 5 4 7 14 1 2 14 17 37 28 26 9 8 42 42 42 43 32 28 28 25 19 16
39 38 34 32 33 35 32 30 34 43 33 27 15 8 28 6 4 4 6 8 11 6 13 13 24 8 16 6 5 11 5 5 5 6 7 3 5 9 27 31 29 41 41 49 46 37 34 24 19 19 23 21 15 17
35 32 31 31 33 31 27 21 29 31 31 28 23 29 13 6 4 6 6 6 6 5 9 5 3 4 4 4 2 6 1 4 4 3 4 5 6 29 33 33 42 45 46 40 28 32 31 22 15 21 29 22 17 16
34 30 30 30 33 29 19 20 25 29 27 13 6 6 5 4 4 8 5 3 2 19 4 1 3 3 6 6 6 4 4 3 16 4 3 4 20 35 32 44 44 39 36 34 32 29 28 25 17 28 31 26 16 17
35 32 27 27 25 16 19 19 19 23 11 6 4 7 6 6 2 2 4 5 16 15 21 25 5 3 6 4 6 5 1 6 3 3 4 7 32 33 32 46 45 41 37 36 33 27 24 24 23 28 35 32 19 22
36 29 20 11 17 24 24 18 10 12 6 6 6 7 6 7 23 18 21 21 20 20 16 10 3 5 5 5 2 5 3 3 6 4 5 29 42 32 37 48 42 35 31 31 27 23 23 23 25 25 30 33 24 22
31 19 3 17 29 29 23 14 7 7 6 7 10 9 12 15 13 17 16 20 14 10 11 8 6 5 7 4 7 4 3 3 4 6 31 40 35 27 48 42 40 35 28 29 26 19 19 24 30 25 25 28 32 28
23 9 19 38 38 25 16 7 3 7 7 7 11 20 19 21 21 22 12 11 11 9 2 5 3 7 3 3 3 3 4 6 22 36 41 39 33 52 45 44 39 35 29 26 24 17 16 18 26 21 23 29 30 31
23 22 31 36 37 15 2 5 6 7 11 17 12 18 20 22 21 25 14 7 4 6 8 3 8 5 7 3 5 4 13 26 37 41 42 38 45 43 41 39 34 27 28 22 20 18 17 16 18 18 19 18 20 27
26 24 20 15 11 9 3 4 7 7 12 19 22 26 21 23 14 19 13 5 8 13 12 10 4 4 4 8 7 16 22 33 36 42 42 38 41 42 38 36 31 29 27 22 26 21 18 14 14 12 17 19 19 16
21 18 9 6 5 3 6 7 7 8 10 13 26 26 22 18 15 10 10 8 10 6 5 4 6 5 13 15 14 23 27 35 43 42 37 36 44 42 41 37 32 25 29 28 21 23 25 23 21 15 11 13 10 22
6 5 8 11 7 8 7 8 7 8 12 13 26 26 22 19 10 9 9 10 5 5 4 9 22 25 21 22 21 33 31 35 34 38 40 48 43 40 37 37 32 32 23 23 29 26 19 12 16 16 15 19 22 22
5 10 3 7 7 8 11 11 10 14 10 19 30 26 16 14 6 9 8 11 5 6 3 15 9 7 21 21 21 22 21 26 22 25 31 43 45 40 38 38 32 37 28 26 30 30 21 23 20 19 14 20 24 21
8 5 5 6 6 5 12 11 7 7 6 6 9 7 8 9 9 17 5 9 7 5 6 10 11 13 18 16 20 23 22 23 21 22 39 33 38 32 40 30 29 35 35 38 31 27 21 22 18 22 21 22 23 24
5 4 5 7 14 8 7 8 11 8 8 6 6 8 4 3 7 8 3 6 10 7 4 5 3 15 12 12 21 22 20 17 19 22 23 28 38 31 34 35 30 24 31 35 35 27 30 26 23 19 20 21 23 22
5 8 8 10 9 6 8 8 10 8 8 12 15 9 3 5 4 5 4 7 17 17 14 15 25 15 18 11 17 21 20 17 19 19 16 17 27 30 31 34 29 29 31 30 34 27 27 19 25 25 23 26 27 21
6 9 10 10 12 11 8 5 11 16 13 8 10 12 5 6 1 7 5 5 5 11 26 29 25 19 23 14 13 20 15 17 16 18 17 15 26 28 31 39 41 36 27 26 28 24 27 22 22 26 27 29 22 20
7 10 17 19 15 16 10 13 20 8 7 6 2 2 2 2 7 4 4 10 14 16 10 12 16 20 13 11 12 9 13 14 13 19 22 22 23 20 27 34 43 36 30 30 32 29 32 26 32 22 20 18 25 20
13 11 8 12 18 19 16 12 7 5 1 4 8 8 5 5 4 4 2 7 5 8 6 5 5 9 12 8 7 2 16 21 19 17 21 32 27 11 16 14 37 31 31 30 29 37 33 35 31 26 19 25 22 19
12 16 14 20 20 10 11 13 8 4 10 7 4 5 5 6 6 3 3 1 2 4 5 7 6 5 3 4 4 6 8 18 10 10 16 20 19 15 9 12 28 29 36 35 42 37 31 29 27 30 30 31 27 23
23 26 15 13 18 9 4 9 7 6 7 7 9 13 15 13 10 6 6 7 6 5 4 8 10 10 12 12 6 4 6 9 15 11 16 24 19 21 24 27 29 32 31 44 42 38 36 37 37 34 31 26 22 25
10 10 19 22 17 10 8 14 11 17 14 9 12 17 13 13 14 9 7 3 6 2 4 5 8 2 11 17 12 9 6 5 10 14 18 19 16 22 20 32 23 31 34 35 41 41 40 38 36 35 28 25 21 23
14 13 7 8 13 6 13 14 9 4 4 11 11 19 15 11 7 4 2 3 4 3 4 5 4 10 11 7 5 2 5 4 8 16 9 18 20 18 24 26 34 42 38 32 40 37 35 33 28 31 29 29 26 25
21 20 14 12 9 10 12 12 6 4 4 10 10 13 8 7 7 9 7 5 3 7 8 13 12 15 14 16 19 22 19 15 17 20 19 19 24 31 31 24 33 39 39 30 38 33 31 31 31 33 35 31 30 27
Wind_Direction_850mb
304 310 313 316 317 318 321 319 319 321 326 328 327 323 319 315 314 319 301 302 303 280 284 281 284 301 302 305 303 316 332 1 300 320 26 307 84 137 280 116 129 128 116 195 18 85 122 338 30 65 129 94 85 68
301 308 312 314 316 318 318 318 317 318 321 326 326 324 316 314 311 318 312 300 307 290 275 290 290 289 279 275 273 246 256 304 322 306 35 340 341 65 341 98 128 111 153 161 138 165 98 88 107 124 112 111 102 90
303 307 311 314 315 315 317 319 318 316 318 320 324 327 320 313 309 313 307 305 309 286 301 279 293 288 282 257 255 182 270 287 344 326 299 249 117 269 125 47 66 70 63 108 83 39 93 109 113 112 115 105 102 97
301 306 310 312 314 314 317 319 319 318 318 322 326 324 319 311 308 308 303 298 297 274 271 281 256 300 280 277 254 252 270 261 277 269 232 225 113 356 58 167 116 182 95 151 91 119 82 92 115 114 104 89 83 74
301 305 309 312 313 314 317 318 318 317 319 325 326 320 314 308 314 309 305 290 272 241 286 296 312 337 339 275 272 258 240 265 298 322 351 15 31 6 344 74 47 34 26 38 102 120 112 82 72 97 91 80 67 54
302 306 310 311 312 315 316 320 321 319 323 327 324 322 319 312 313 326 322 65 112 232 272 293 289 315 315 101 221 207 220 242 313 334 334 71 16 26 27 56 57 89 77 99 114 114 121 120 98 95 83 78 73 59
304 307 310 313 316 319 321 326 323 321 327 325 319 317 312 306 287 271 269 304 12 343 276 284 291 319 287 188 231 272 286 228 180 40 40 1 70 5 34 45 68 95 102 102 117 122 91 116 93 96 96 84 84 42
303 305 310 313 317 317 322 324 322 326 325 321 319 317 309 298 288 291 310 283 237 271 270 279 269 306 289 340 10 232 320 3 29 5 81 74 97 286 337 124 98 105 110 107 102 107 112 104 93 78 64 34 4 342
303 306 311 312 313 316 321 322 324 328 328 327 332 334 335 2 352 344 315 278 231 240 260 279 294 305 320 328 68 166 185 277 238 210 235 135 186 230 337 129 131 116 111 118 115 115 99 83 73 55 28 5 352 341
306 309 309 312 314 320 324 321 327 333 342 345 342 355 338 314 292 295 267 238 230 220 231 249 140 266 305 274 166 222 214 224 187 210 152 188 114 75 122 129 117 83 63 122 87 73 81 74 69 42 26 5 355 343
306 305 308 309 312 320 322 324 334 332 354 355 338 320 317 299 328 254 261 218 179 228 215 231 172 231 214 239 210 208 208 208 172 210 131 227 89 110 115 118 115 106 98 92 94 92 86 83 65 50 24 13 13 346
309 312 313 308 313 319 322 331 334 339 332 311 302 304 304 309 284 275 232 215 223 255 204 213 225 195 237 210 248 272 193 269 112 114 134 121 142 125 119 112 109 106 106 102 97 93 84 77 49 43 30 28 16 9
312 315 311 306 313 316 320 330 329 335 330 319 293 280 286 252 270 242 266 213 270 334 262 213 167 165 228 260 260 267 287 74 135 153 99 100 135 131 132 119 111 109 111 111 108 100 90 87 62 43 35 31 42 40
314 315 309 312 317 322 319 325 332 337 319 292 289 282 257 221 279 273 254 247 283 296 342 340 139 201 237 264 210 273 239 127 216 122 101 153 142 145 136 126 120 113 112 119 120 113 98 80 64 47 34 35 61 58
317 314 312 299 326 323 321 323 321 310 268 271 255 254 248 318 305 317 315 298 290 308 340 341 319 227 252 232 194 5 237 209 64 136 130 138 144 145 138 129 123 122 131 132 135 126 109 87 70 60 41 40 61 80
322 325 288 309 315 321 317 312 304 256 249 243 235 267 295 308 313 330 318 305 323 319 323 250 267 226 243 192 194 224 19 121 227 142 140 144 144 147 132 130 133 132 135 135 142 136 126 96 68 61 68 45 54 73
320 299 311 311 314 316 281 267 232 233 245 239 238 238 261 276 277 284 288 278 290 311 302 299 267 269 214 161 181 62 110 130 134 126 144 152 149 134 133 135 134 135 137 146 145 141 127 107 85 69 83 65 53 57
305 305 290 298 308 325 225 229 224 240 248 248 257 266 240 233 264 293 285 270 287 333 326 275 282 300 3 21 16 94 111 127 142 137 141 142 145 143 143 139 139 139 143 142 135 126 114 102 88 86 85 92 70 66
308 305 308 293 308 333 316 248 235 265 262 272 274 283 288 285 269 285 278 272 288 286 289 284 7 75 265 212 182 112 144 148 143 139 142 146 149 148 146 146 145 146 146 141 135 145 158 112 92 85 69 91 89 92
304 304 294 231 232 271 268 249 232 254 274 306 297 287 293 284 280 277 269 275 310 286 241 49 297 314 126 118 108 145 135 139 136 138 147 150 152 149 151 152 154 143 146 152 155 135 129 131 126 133 118 100 94 82
330 344 301 209 248 245 268 297 258 259 289 280 295 309 284 274 241 245 257 230 275 286 78 91 266 300 110 96 97 130 139 149 153 157 152 146 154 154 155 159 158 161 164 154 147 157 163 149 128 116 105 98 111 118
273 318 287 220 245 236 246 239 251 300 280 278 290 280 268 279 225 217 202 216 253 269 118 139 312 133 105 107 123 147 147 151 139 140 153 155 155 159 165 168 171 183 181 160 162 170 161 145 148 141 116 111 105 110
295 301 271 244 248 253 264 231 242 230 250 254 267 252 226 230 200 165 205 220 228 248 222 196 164 125 121 116 125 135 149 147 148 151 156 162 168 169 176 177 181 193 189 183 167 169 160 163 147 136 130 123 129 134
262 270 258 266 198 248 254 226 217 238 247 253 252 262 259 283 178 181 212 102 35 339 241 80 49 117 124 142 137 143 149 152 164 163 178 172 169 178 184 182 178 177 176 171 172 166 165 164 166 159 153 145 139 142
240 243 216 256 248 248 232 230 204 228 242 212 257 277 358 318 212 229 96 44 35 37 48 86 77 96 189 171 154 159 162 153 157 162 180 166 172 183 175 171 169 173 172 176 166 158 168 164 167 168 166 168 167 163
247 230 204 232 201 213 232 254 209 217 234 230 236 105 186 229 207 50 47 28 68 14 47 52 54 70 70 77 154 156 161 171 172 170 179 174 177 182 178 172 172 171 182 183 178 164 164 162 173 182 165 157 162 161
254 258 229 240 254 290 292 276 271 255 249 234 55 294 304 30 82 133 171 44 25 36 45 27 47 39 48 70 91 144 184 173 195 196 199 182 171 202 199 191 183 185 178 184 189 186 177 163 174 174 174 180 164 172
249 279 277 251 255 257 271 279 287 263 170 85 57 14 48 44 81 93 337 295 337 24 7 8 359 24 61 59 45 40 187 195 225 228 231 199 213 190 176 190 192 190 193 198 188 186 182 177 180 182 171 155 161 168
238 252 281 276 258 245 245 248 251 18 349 23 118 99 108 140 108 87 5 303 260 353 20 43 41 29 78 70 306 323 198 174 186 176 190 200 195 194 165 164 188 183 185 189 186 176 175 175 171 173 171 173 175 175
249 225 239 266 249 248 354 341 344 180 170 143 136 132 114 107 110 93 96 55 52 44 29 43 44 47 43 30 58 99 185 202 204 226 211 192 195 199 182 157 168 181 180 172 172 169 169 169 173 177 179 181 187 177
245 237 235 248 273 298 285 294 306 265 193 168 161 146 137 136 126 126 134 71 4 85 162 111 53 58 91 62 32 56 115 167 223 220 221 210 191 196 198 200 186 202 196 198 188 183 181 181 183 180 179 176 181 169
227 222 257 287 287 334 306 284 277 264 197 167 166 144 147 148 133 131 26 122 155 106 258 235 274 275 261 231 127 238 203 208 248 234 188 200 222 198 181 186 204 198 195 192 185 184 190 194 193 181 175 181 177 182
238 238 243 276 276 275 271 259 237 233 187 165 170 185 161 146 126 171 259 309 218 209 244 266 294 300 297 285 267 251 241 237 266 258 257 233 212 197 178 175 192 195 185 190 173 189 184 184 178 178 186 186 181 193